Tracking 31027 objects as of 19-Jul-2025
HD Live streaming from Space Station
objects crossing your sky now

STARLINK-4750

Track STARLINK-4750 now!
10-day predictions
STARLINK-4750 is classified as:


NORAD ID: 53841
Int'l Code: 2022-114Z
Perigee: 546.1 km
Apogee: 547.7 km
Inclination: 53.2 °
Period: 95.4 minutes
Semi major axis: 6917 km
RCS: Unknown
Launch date: September 19, 2022
Source: United States (US)
Launch site: AIR FORCE EASTERN TEST RANGE (AFETR)
Your satellite tracking list
STARLINK-31611
Track 1 satellite(s)




NASA's NSSDC Master Catalog

Two Line Element Set (TLE):
1 53841U 22114Z   25199.49026847  .00000326  00000-0  38582-4 0  9998
2 53841  53.2171 265.6136 0001103  89.3212 270.7906 15.08837768157615
Source of the keplerian elements: AFSPC